Location: Newark
(54.9353°N, 24.1167°E)
Time: 07:36:21
(UTC+00:00)

Envisat - Pass Details

Date: 06 October 2020
Orbit: 764 x 766 km, 98.1° (Epoch: 23 October)

Event Time Altitude Azimuth Distance (km) Brightness Sun altitude
Rises 03:16:57 0° 23° (NNE) 3,246 6.7 -12.1°
Reaches altitude 10° 03:19:53 10° 41° (NE) 2,314 6.2 -11.7°
Maximum altitude 03:23:36 20° 88° (E) 1,717 6.0 -11.2°
Drops below altitude 10° 03:27:18 10° 135° (SE) 2,301 6.0 -10.7°
Sets 03:30:12 0° 152° (SSE) 3,222 6.5 -10.3°
